GFSMA_850_tadv_315.txt.gz
Temp_Advection
nan nan nan nan nan nan nan nan nan nan nan nan nan nan nan nan nan nan nan nan nan nan nan nan nan nan nan nan nan nan nan nan nan nan nan nan nan nan nan nan nan nan nan
nan 0 0 -0 -0 -0 -0 0 0 -0 -0 0 0 0 0 0 0 0 0 0 0 0 0 0 0 0 0 0 0 0 0 -0 -0 0 0 0 0 0 0 0 0 0 nan
nan -0 -0 -1 -0 -0 0 0 0 -0 -1 0 1 0 0 0 0 0 0 0 0 0 0 -0 0 0 0 0 0 0 0 0 0 0 0 0 0 0 0 0 0 0 nan
nan -0 -1 -1 -1 0 -0 -0 0 -0 -0 1 0 -0 0 0 -0 0 0 0 0 -0 0 0 0 0 0 0 0 0 0 0 0 0 -0 -0 0 0 0 0 0 0 nan
nan -0 -1 -1 -1 -1 -0 -0 0 0 -0 -0 1 1 -0 -0 0 0 0 1 0 0 0 0 -0 0 0 0 0 0 0 0 0 -0 0 0 0 0 0 0 0 0 nan
nan -1 -1 -1 -1 -1 0 -0 -0 -0 -0 0 1 0 0 0 1 0 0 0 0 0 0 0 -0 0 0 0 0 -0 0 0 -0 0 1 0 0 0 0 -0 0 -0 nan
nan -1 -1 -1 -1 -1 -1 -0 -1 -1 0 0 1 1 1 -0 0 1 0 -0 -1 0 0 0 0 -0 0 0 0 0 0 -0 -0 1 1 0 0 0 0 0 0 0 nan
nan -2 -2 -1 -1 -1 -1 -0 -1 -1 -1 -0 1 1 0 0 -0 -1 -1 -0 0 0 0 0 0 0 0 -0 0 0 0 0 0 0 0 0 0 0 0 0 0 0 nan
nan -2 -2 -2 -1 -2 -1 -1 -1 -0 -1 -0 0 0 -0 -0 -0 -0 0 0 -0 0 1 -0 -0 0 -0 -0 -0 0 1 -0 -0 0 0 0 -0 0 -0 -0 0 0 nan
nan -2 -2 -2 -2 -2 -1 -1 -1 -0 -1 -1 -0 0 -1 0 0 -0 -0 -0 1 0 -0 0 -0 -0 -0 0 -0 0 0 -0 -0 1 0 0 0 0 0 0 0 -0 nan
nan -2 -2 -2 -2 -2 -2 -1 -1 -0 -0 -1 -1 -1 -1 -1 0 0 -0 0 -0 -0 -0 -0 -0 -0 0 0 -0 0 0 0 0 1 0 0 0 0 0 0 -0 -1 nan
nan -1 -2 -2 -2 -2 -2 -2 -2 -1 -1 -1 -1 -1 -1 -1 -0 -0 -0 -0 -0 -0 0 0 0 -0 -0 -0 0 0 0 0 0 -0 0 0 0 -0 -0 -0 -1 0 nan
nan -1 -1 -3 -2 -1 -2 -2 -2 -2 -2 -1 -1 -1 -1 -1 -1 -1 -1 0 0 0 0 -0 0 -0 -1 -0 0 -0 -0 -0 0 0 0 0 0 -0 -1 -1 -0 0 nan
nan -2 -1 -1 -3 -2 -1 -2 -3 -3 -3 -2 -2 -1 -2 -2 -1 -0 -1 -0 -0 -0 -0 -0 0 -0 -0 -0 -0 -0 0 0 0 0 0 0 -0 -0 -0 -0 -1 -0 nan
nan -2 -2 -1 -1 -2 -1 -1 -3 -2 -2 -3 -3 -2 -2 -2 -1 -0 -1 -1 -0 -0 -0 -0 -0 -0 -0 -0 0 0 -0 -0 -0 0 0 -0 0 -0 -0 -1 -0 0 nan
nan -1 -1 -2 -1 -0 -1 -1 -2 -2 -2 -2 -3 -3 -3 -2 -2 -1 -0 -1 -1 -0 -0 -0 0 0 0 0 -1 -0 -0 -1 -0 0 -0 0 1 -0 -0 0 0 -0 nan
nan -0 -1 -1 -2 -1 -0 -1 -1 -1 -2 -2 -2 -3 -4 -3 -3 -2 -1 -1 -0 -1 -0 -1 -0 0 0 -0 -0 -1 -1 0 0 0 0 0 1 0 -0 0 0 0 nan
nan -0 -0 -1 -1 -1 -1 -1 -1 -1 -1 -1 -1 -1 -2 -3 -3 -3 -3 -1 -2 -1 -0 -0 -0 0 -0 -1 -0 -0 1 1 -0 -0 0 0 0 0 0 0 0 0 nan
nan -1 -0 -0 -1 -1 -1 -1 -1 -1 -1 -1 -1 -1 -1 -2 -3 -3 -4 -4 -2 -0 -1 -0 -0 0 -0 0 -0 -1 0 1 1 -1 -0 1 1 0 0 0 0 0 nan
nan -1 -1 -1 -0 -1 -1 -1 -1 -1 -1 -1 -1 -1 -1 -1 -2 -2 -3 -4 -3 -2 0 -1 -1 0 0 -0 0 1 -1 0 0 -0 -1 -0 1 1 0 0 0 0 nan
nan -1 -1 -1 -1 -1 -1 -1 -1 -1 -1 -1 -0 -1 -1 -1 -1 -1 -3 -3 -2 -3 -3 -3 -1 -0 0 0 0 -0 -0 -1 -0 -0 1 0 -0 0 0 -0 -1 -0 nan
nan -0 -0 -1 -1 -1 -1 -1 -1 -1 -1 -0 -1 -0 -1 -1 -1 -1 -1 -2 -3 -4 -2 -3 -3 -1 0 -0 -0 0 0 1 1 -0 -1 -1 -0 0 -0 -0 -1 -0 nan
nan 0 -0 -1 -1 -1 -1 -1 -1 -1 -1 -1 -0 -0 -1 -1 -1 -1 -1 -1 -4 -5 -4 -3 -4 -3 -0 -0 0 -0 -2 -1 -0 -0 -0 -0 -0 -0 -0 -1 -1 0 nan
nan 1 -0 -0 -1 -1 -1 -1 -1 -1 -1 -1 -1 -0 -1 -1 -1 -0 -1 -2 -2 -4 -6 -3 -3 -2 -0 -0 -2 -2 -1 3 3 1 0 -1 -1 -0 -0 -1 -0 1 nan
nan 1 1 -0 -1 -1 -1 -1 -1 -1 -1 -1 -1 -1 -1 -1 -1 -1 -0 -0 -2 -3 -2 -2 -6 -4 -1 -1 -1 1 2 2 1 0 -0 -0 -0 -0 -1 -1 -0 1 nan
nan nan nan nan nan nan nan nan nan nan nan nan nan nan nan nan nan nan nan nan nan nan nan nan nan nan nan nan nan nan nan nan nan nan nan nan nan nan nan nan nan nan nan

GFSMA_850_tadv_318.txt.gz
Temp_Advection
nan nan nan nan nan nan nan nan nan nan nan nan nan nan nan nan nan nan nan nan nan nan nan nan nan nan nan nan nan nan nan nan nan nan nan nan nan nan nan nan nan nan nan
nan -1 -1 -0 -0 -0 -0 -0 -0 -0 -0 -1 -0 -0 0 0 0 0 0 0 0 0 0 0 0 0 -0 0 0 0 0 0 0 0 0 0 0 0 0 0 0 0 nan
nan -0 -0 -1 -1 -1 -1 -0 0 0 -0 -0 -0 0 0 0 0 0 0 0 0 0 0 0 0 -0 0 0 0 0 0 -0 0 0 0 0 0 0 0 0 0 0 nan
nan -1 -1 -0 -0 -0 -1 -1 -1 0 0 -1 -1 0 0 0 0 0 0 0 0 0 0 0 0 0 0 0 0 0 -0 0 0 0 0 0 0 0 0 0 0 0 nan
nan -1 -1 -1 -1 -1 -0 -1 -1 -0 -1 -1 -0 -0 0 -0 -0 0 0 0 0 0 0 0 0 0 0 0 0 0 0 0 0 0 0 0 0 0 0 0 0 0 nan
nan -1 -1 -1 -1 -1 -1 -1 -1 -0 -1 -1 -0 -0 0 0 -0 0 1 0 0 0 0 0 0 0 0 0 0 0 -0 -0 0 0 -0 0 0 0 -0 0 0 0 nan
nan -1 -1 -1 -1 -2 -1 -1 -2 -2 -0 -0 -1 -0 1 0 0 -0 -1 -1 0 0 0 0 -0 0 0 0 0 0 0 -0 -0 0 0 0 0 0 0 0 0 0 nan
nan -1 -1 -2 -2 -2 -2 -1 -1 -2 -2 -0 -1 -1 -0 -0 -1 -1 -0 0 0 0 0 0 0 0 0 -0 -0 0 0 0 0 0 1 1 1 0 0 0 0 0 nan
nan -1 -1 -2 -2 -2 -2 -2 -1 -2 -3 -1 1 -1 -1 -0 -0 1 -1 -1 -0 0 0 -0 0 0 -0 -0 -0 0 0 0 0 1 1 0 0 0 0 0 0 0 nan
nan -1 -1 -1 -1 -2 -2 -2 -1 -1 -2 -3 -0 1 -0 -1 -1 -1 -1 -0 0 -0 -1 1 0 0 1 0 -1 -0 0 1 0 1 0 0 0 -0 0 0 -0 0 nan
nan -1 -1 -1 -1 -1 -1 -2 -2 -1 -2 -3 -3 -2 -1 -1 -1 -1 -0 -0 0 -0 0 -0 1 2 1 0 -0 -0 0 0 0 1 0 0 0 -0 0 -0 -0 -0 nan
nan -1 -0 -1 -1 -1 -1 -1 -1 -1 -1 -2 -3 -1 -0 -3 -3 -0 -3 -2 -0 -0 -0 1 1 1 0 -0 -1 -1 0 0 0 0 0 0 0 -0 0 -0 0 0 nan
nan -1 -1 -1 -1 -1 -1 -1 -1 -1 -1 -2 -3 -2 -1 -1 -1 -0 -2 -4 -3 -1 -0 -1 0 1 0 -0 -1 -1 -0 0 0 0 0 0 -0 -0 0 0 0 -0 nan
nan -2 -1 -1 -1 -1 -1 -1 -1 -1 -0 -1 -2 -2 -3 -2 -1 -1 0 -2 -4 -2 -2 -1 -0 1 0 -1 -1 -0 -0 0 0 0 0 0 -0 0 0 -0 -0 0 nan
nan -1 -1 -1 -1 -1 -1 -1 -1 -1 -1 -0 -2 -2 -2 -3 -2 -1 -0 -0 -2 -4 -3 -1 -0 -1 -0 0 0 -0 -1 -0 0 0 0 0 0 0 -0 -0 1 -0 nan
nan -1 -1 -1 -1 -1 -1 -1 -1 -1 -1 -1 -1 -2 -2 -2 -2 -2 -1 -1 -1 -2 -4 -3 -2 -0 -0 -0 1 0 -1 -1 0 0 0 -0 0 0 -0 0 0 0 nan
nan -0 -1 -1 -1 -1 -1 -1 -1 -1 -0 -1 -1 -1 -1 -1 -2 -2 -3 -3 -2 -1 -5 -5 -1 -0 1 0 -1 -0 0 -0 0 0 0 0 0 0 0 0 0 -0 nan
nan 0 -0 -0 -0 -0 -0 -1 -1 -1 -0 -1 -1 -1 -1 -1 -1 -1 -2 -3 -2 -1 -2 -5 -5 -1 -1 -1 0 -1 -0 1 1 0 0 0 0 0 0 0 0 -0 nan
nan -0 -0 -0 0 -0 0 0 -1 -1 -1 -1 -1 -1 -1 -1 -1 -1 -1 -2 -2 -2 -2 -5 -7 -2 -2 -0 0 -0 0 0 0 1 1 -0 -0 0 0 0 -0 -0 nan
nan -0 -0 -0 0 0 0 -0 -0 -1 -1 -1 -1 -1 -1 -1 -1 -1 -1 -1 -1 -2 -2 -2 -5 -5 -2 -1 0 1 -0 -0 0 0 0 -0 -0 0 1 0 0 0 nan
nan -0 -0 -0 0 0 -0 -0 -1 -0 -0 -1 -1 -1 -1 -1 -1 -1 -0 -1 -1 -2 -2 -2 -2 -3 -6 -3 -0 -1 -1 -1 0 0 1 0 -0 0 -0 -0 -0 0 nan
nan -0 -0 -0 -0 1 -0 -1 -1 -0 -0 -1 -1 -1 -0 -1 -1 -1 -1 -1 -1 -0 -1 -1 -3 -3 -5 -6 -2 0 -0 0 0 -0 0 0 -0 -1 -1 -1 -1 -0 nan
nan -0 -0 -0 -0 1 -0 -1 -1 -1 -0 -1 -1 -1 -1 -1 -1 -1 -1 -1 -1 -1 -1 -1 -2 -4 -10 -8 1 -0 1 0 -0 -0 1 0 -1 -1 -1 -1 -1 -0 nan
nan -1 -0 -0 -0 0 -0 -1 -1 -1 -0 -1 -1 -1 -1 -1 -0 -1 -1 -1 -1 -1 -1 -1 -2 -3 -7 -2 -1 -0 -1 -2 -0 1 1 -1 -1 -1 -1 -0 -1 0 nan
nan -1 -0 0 -0 -0 0 -1 -1 -0 -0 -1 -1 -0 -0 -1 -1 -1 -1 -1 -1 -1 -0 -1 -1 -2 -2 -4 -2 1 -8 -3 -0 -0 -1 -0 1 -1 0 -0 -1 -0 nan
nan nan nan nan nan nan nan nan nan nan nan nan nan nan nan nan nan nan nan nan nan nan nan nan nan nan nan nan nan nan nan nan nan nan nan nan nan nan nan nan nan nan nan

GFSMA_850_tadv_321.txt.gz
Temp_Advection
nan nan nan nan nan nan nan nan nan nan nan nan nan nan nan nan nan nan nan nan nan nan nan nan nan nan nan nan nan nan nan nan nan nan nan nan nan nan nan nan nan nan nan
nan -1 -0 -0 -0 -1 -1 -1 -0 -0 -0 -0 -0 -0 -0 0 -0 -0 -0 -0 -0 0 0 0 0 0 0 0 0 0 0 0 0 0 0 0 0 0 -0 0 0 0 nan
nan -1 -1 -1 -1 -0 -0 -1 -1 -1 -1 -0 -0 -0 -0 -0 -0 0 0 0 0 0 0 0 0 0 0 0 0 0 0 0 0 0 0 0 0 0 -0 0 0 0 nan
nan -1 -1 -1 -1 -1 -1 -1 -1 -1 -1 -1 -0 -0 -0 -0 -1 -0 0 0 0 0 -0 0 0 0 0 0 0 0 0 0 0 0 0 0 1 0 0 0 0 0 nan
nan -1 -1 -1 -1 -1 -1 -1 -1 -1 -1 -1 -1 -1 -1 -0 1 0 -0 -0 0 0 -0 0 0 0 0 0 0 0 0 0 0 0 0 0 0 0 0 0 0 0 nan
nan -1 -1 -1 -1 -1 -1 -2 -1 -1 -1 -1 -1 -1 -2 -1 0 -0 -0 -0 0 -0 -0 0 0 0 0 0 0 0 0 0 -0 0 0 0 0 0 -0 0 0 0 nan
nan -1 -1 -1 -1 -1 -1 -2 -2 -2 -1 -2 -3 -2 -1 -1 -1 0 1 0 -0 -0 -0 -0 -0 0 0 0 -0 0 0 0 -0 0 0 0 0 0 0 0 0 0 nan
nan -1 -2 -2 -2 -2 -1 -1 -2 -2 -2 -1 -2 -4 -2 -2 -0 -0 -0 0 -0 0 0 -0 -0 -0 0 0 0 0 -0 0 0 0 0 0 0 0 0 -0 -0 0 nan
nan -1 -1 -2 -2 -2 -2 -1 -2 -3 -3 -1 -0 -1 -1 -1 -4 -1 -1 -0 -0 -0 -0 -0 -0 -0 0 0 0 0 0 0 0 0 1 1 0 0 0 0 0 0 nan
nan -0 -0 -0 -1 -1 -1 -1 -1 -1 -3 -3 -1 0 1 -0 -1 -6 -1 -0 -2 -1 -1 -0 0 1 -0 -0 0 0 -0 0 0 0 1 1 0 0 0 -0 0 0 nan
nan -0 -0 -0 -0 -1 -1 -1 -1 -0 -1 -2 -2 -2 -1 -1 -0 -1 -6 -4 -1 -0 -0 -0 -1 -1 -0 1 0 0 0 0 0 0 0 0 0 0 -0 0 0 -0 nan
nan -0 -0 -0 -0 -0 -1 -1 -1 -1 -0 -1 -1 -0 -1 -1 -2 -1 -3 -4 -5 -4 -1 -1 -1 -1 -0 -0 -0 1 0 -0 -0 -0 0 0 0 0 0 1 0 -0 nan
nan -1 -1 -1 -0 -0 -0 -0 -1 -1 -0 -1 -1 -1 0 -0 -1 -1 -1 -3 -6 -5 -4 -3 -1 -1 0 0 -0 -0 0 0 -0 -0 0 0 0 0 1 0 0 -0 nan
nan -1 -1 -1 -1 -0 -0 -0 -0 -1 -1 -0 -1 -1 -0 -0 -1 -1 -1 -2 -4 -4 -5 -5 -2 -1 -1 -1 -0 -0 0 -0 -0 -0 0 0 1 1 1 0 1 -0 nan
nan -1 -1 -1 -1 -1 -0 -0 -0 -0 -0 -0 -0 -1 -1 -0 -0 -1 -1 -1 -2 -2 -6 -6 -3 -1 -1 -0 -1 -0 0 0 0 -1 -0 0 1 1 0 0 0 -0 nan
nan -0 -0 -1 -1 -0 -0 -0 -1 -0 -0 -0 0 -0 -1 -1 -1 -1 -1 -1 -1 -1 -3 -7 -5 -1 -0 -0 -1 -0 -1 -0 0 0 -0 0 0 0 0 0 -0 0 nan
nan -0 -0 -0 -1 -1 -0 -0 -0 -0 -0 -0 0 0 -1 -1 -1 -1 -1 -1 -1 -1 -2 -4 -7 -5 -1 -1 -1 -0 -1 -1 0 -0 -0 0 -0 0 0 0 -0 0 nan
nan -0 -0 -0 -0 -1 -0 -0 -0 -0 -1 -1 0 0 -0 -1 -1 -1 -1 -1 -1 -1 -1 -3 -6 -5 -5 -3 -1 -1 -1 -0 -0 -0 -0 -0 -0 0 0 0 0 -0 nan
nan -0 -0 -0 -0 0 -0 -0 -0 -0 -0 -1 -0 -0 -0 0 -1 -1 -1 -1 -1 -1 -1 -2 -3 -4 -8 -7 -3 -1 -1 -0 0 -1 -0 0 0 0 0 0 0 0 nan
nan -1 -0 -0 -0 -0 0 -0 -0 -0 -0 -1 -1 -0 -0 -0 -1 -1 -1 -1 -1 -1 -1 -1 -2 -3 -7 -4 -2 -5 -2 -0 -0 -1 -0 -0 0 0 0 1 1 0 nan
nan -1 -1 -0 -0 -0 0 0 -0 -1 -0 -1 -0 -0 -0 -0 -1 -1 -1 -1 -0 -0 -0 -1 -1 -2 -3 -4 -5 -4 -3 -2 -2 -1 -1 -0 1 0 0 1 0 0 nan
nan -1 -0 -0 -0 -0 1 0 -1 -1 -0 -0 -1 -1 -0 -0 -1 -1 -1 -1 -1 -1 -0 -0 -1 -1 -1 -2 -4 -2 -3 -4 -3 -1 0 -0 -1 0 1 -1 0 1 nan
nan -1 -0 -0 -1 -0 1 1 -1 -0 -0 -0 -0 -0 -1 -0 -0 -1 -1 -1 -1 -1 -1 -1 -0 -0 -1 -1 -2 -4 -2 -3 -6 -3 -1 1 -0 -1 -1 1 0 -1 nan
nan -1 -1 -0 -1 -0 1 0 -1 -1 -0 -0 -0 -1 -1 -0 0 -0 -1 -1 -1 -1 -1 -1 -1 -1 -1 -1 -1 -1 -4 -5 -9 -5 1 -4 -4 0 -1 -1 -0 0 nan
nan -1 -1 -1 -1 -1 1 1 -1 -1 -1 -1 -0 -0 -0 -0 -0 -0 -1 -1 -0 -1 -0 -0 -1 -1 -1 -1 -1 -1 -1 -3 -9 -9 -2 -2 -0 0 -0 -1 -1 -1 nan
nan nan nan nan nan nan nan nan nan nan nan nan nan nan nan nan nan nan nan nan nan nan nan nan nan nan nan nan nan nan nan nan nan nan nan nan nan nan nan nan nan nan nan

GFSMA_850_tadv_327.txt.gz
Temp_Advection
nan nan nan nan nan nan nan nan nan nan nan nan nan nan nan nan nan nan nan nan nan nan nan nan nan nan nan nan nan nan nan nan nan nan nan nan nan nan nan nan nan nan nan
nan -1 -1 -0 -1 -1 -1 -1 -1 -0 -0 -0 -0 -0 -0 -0 -0 -0 -0 0 -0 -0 0 0 0 -0 -0 0 0 0 0 0 0 0 0 0 0 0 0 0 0 0 nan
nan -1 -1 -1 -1 -1 -1 -1 -1 -1 -1 -1 -0 -0 -0 -0 -1 -1 -0 -0 0 -0 0 0 0 0 -0 -0 0 0 0 0 0 0 0 0 -0 0 0 0 0 0 nan
nan -1 -1 -1 -1 -1 -1 -1 -1 -1 -1 -1 -1 -1 -0 -0 -1 -1 -0 -0 -0 -0 -0 0 1 0 -0 -0 0 0 0 -0 0 0 0 0 0 0 0 1 0 0 nan
nan -1 -1 -1 -1 -1 -1 -1 -1 -2 -2 -2 -2 -1 -1 -1 -0 -0 -0 -0 -0 -0 -0 0 0 1 0 -0 0 -0 -0 0 0 0 0 0 0 0 0 0 0 0 nan
nan -1 -1 -1 -2 -2 -2 -2 -2 -1 -2 -2 -3 -2 -1 -1 -1 -1 -0 0 0 -0 -1 0 0 0 0 0 0 -0 -0 0 0 0 0 0 0 0 0 0 1 0 nan
nan -1 -1 -1 -1 -1 -2 -2 -2 -2 -2 -3 -4 -5 -2 -1 -1 -0 0 -1 -0 0 -0 -1 -0 -0 0 0 0 0 -0 0 0 0 0 0 1 0 0 0 1 0 nan
nan -0 -0 -0 -0 -0 -1 -1 -2 -2 -2 -2 -4 -5 -6 -6 -2 -0 0 -0 -0 -0 -1 -0 0 -1 -0 -1 0 0 -0 0 -0 0 0 0 0 0 0 0 0 0 nan
nan -0 -0 -0 -0 -0 0 0 -0 -1 -2 -1 -1 -1 -1 -2 -11 -8 -2 -0 -0 0 -0 -1 -0 -1 -0 -0 -0 -1 -0 0 0 -0 -0 -0 0 0 1 1 -0 0 nan
nan -0 -0 -0 -0 -0 -0 0 0 0 -0 -1 -1 0 0 0 -1 -7 -11 -3 -2 -1 -0 0 -1 -1 -0 -0 -0 -1 -1 0 0 0 -0 -0 0 0 1 0 0 1 nan
nan -0 -0 -0 -0 -0 -0 -0 -0 0 0 -0 -1 -0 -0 -0 0 0 -6 -13 -6 -2 -2 -2 -1 0 -0 -1 -1 -0 -1 -0 0 0 -0 -0 -0 -0 0 0 0 0 nan
nan -0 -0 -0 -0 -1 -1 -0 -0 0 0 -0 -0 -0 0 0 -0 0 -1 -6 -12 -7 -3 -3 -3 -2 -0 -0 -2 -2 -1 -1 -0 0 0 -0 -0 0 -0 0 0 1 nan
nan -0 -0 -0 -0 -0 -1 -1 -1 -0 0 0 0 -0 -0 1 1 1 1 -1 -6 -11 -6 -3 -2 -3 -2 -1 -2 -3 -1 -1 -1 0 -0 -0 0 -0 0 0 -0 0 nan
nan -0 -0 -0 -0 -0 -0 -1 -1 -1 -0 -0 0 0 0 -0 1 1 1 0 -1 -5 -9 -4 -3 -2 -2 -2 -2 -2 -2 -2 -1 -0 0 0 0 -1 -0 0 -0 -0 nan
nan -0 -0 -0 -0 -0 -0 -1 -1 -1 -0 -0 -0 -0 0 0 0 0 1 1 -0 -1 -5 -6 -2 -3 -4 -5 -2 -2 -3 -2 -1 -1 -1 0 1 0 -1 -1 -0 0 nan
nan -1 -0 -0 -0 -0 -0 -0 -1 -1 -1 -0 -0 -1 -0 0 0 0 0 1 1 0 -1 -5 -6 -2 -2 -3 -4 -6 -3 -3 -3 -1 -0 -1 -1 -0 0 -0 -1 -0 nan
nan -0 -0 -0 -0 -0 -0 -0 -0 -0 -1 -0 0 -1 -0 -0 -0 0 0 0 0 1 -0 -2 -5 -5 -1 -3 -3 -5 -7 -5 -3 0 -2 -3 -1 -0 0 -0 -0 -1 nan
nan -0 -0 -0 -1 -1 -0 -1 -0 -0 -0 -0 -0 -0 0 0 -0 -0 0 0 -0 1 1 -1 -2 -5 -4 -1 -2 -3 -6 -7 -5 -2 -3 -3 -1 -0 0 -0 -0 -1 nan
nan -0 -1 -1 -0 -0 -0 -0 -1 -0 -0 -0 -0 -0 0 0 -0 -0 -0 -0 -0 -0 1 1 -0 -2 -3 -2 -2 -2 -3 -6 -6 -3 -2 -3 -2 -2 -3 -2 -0 -1 nan
nan -1 -0 -1 -1 -1 -0 -0 -0 -1 -1 -1 -1 -0 0 0 -0 -0 -0 -0 -0 -0 -0 1 1 -0 -2 -2 -0 -1 -1 -2 -5 -6 -6 -2 -0 -4 -6 -2 -0 -0 nan
nan -1 -1 -1 -1 -1 -0 -0 -0 -0 -1 -1 -1 -1 -1 -0 -1 -1 -1 -0 -0 -0 -0 -0 0 -0 -1 -1 -0 0 -1 -1 -2 -4 -6 -3 -2 -8 -3 -1 -2 -1 nan
nan -0 -1 -1 -1 -0 -0 1 1 -1 -1 -1 -1 -1 -0 -0 -0 -1 -1 -1 -1 -1 -0 -0 -1 -1 -1 -1 -1 0 0 -1 -1 -1 -2 -4 -4 -6 -4 -3 -2 -1 nan
nan -1 -1 -1 -1 -0 -0 0 0 -0 -0 -0 -1 -1 -1 -0 -0 -1 -0 -0 -1 -1 -1 -0 -0 0 -0 -1 -1 -1 -0 -0 -1 -1 -1 -3 -5 -8 -7 -3 -2 -2 nan
nan -1 -1 -1 -1 -0 1 0 -1 -0 -1 -1 -1 -0 -1 -1 -0 -0 -1 -1 -1 -1 -0 -0 -0 -0 0 0 -0 -1 -1 -0 -1 -1 -0 -1 -2 -4 -8 -6 -3 -1 nan
nan -1 -1 -1 -1 -0 1 1 -0 -0 -1 -1 -0 -1 -1 -1 -1 -1 -0 -0 -1 -0 0 -0 -1 -1 -1 -0 -0 -0 -0 0 -0 -1 -1 -0 -1 -1 -3 -9 -6 -4 nan
nan nan nan nan nan nan nan nan nan nan nan nan nan nan nan nan nan nan nan nan nan nan nan nan nan nan nan nan nan nan nan nan nan nan nan nan nan nan nan nan nan nan nan

GFSMA_850_tadv_333.txt.gz
Temp_Advection
nan nan nan nan nan nan nan nan nan nan nan nan nan nan nan nan nan nan nan nan nan nan nan nan nan nan nan nan nan nan nan nan nan nan nan nan nan nan nan nan nan nan nan
nan -0 -0 -0 -0 -1 -1 -1 -1 -1 -0 -0 -0 -0 -0 -0 -0 -0 -0 -0 -0 -0 -0 0 0 -0 -0 -0 -0 -0 0 0 0 0 0 0 0 0 0 0 0 0 nan
nan -0 -1 -1 -1 -1 -1 -1 -1 -1 -1 -1 -0 -0 -0 -0 -0 -0 -0 -0 -0 -0 -0 -0 0 0 0 -0 -0 -0 -0 -0 0 0 0 0 0 0 0 0 0 0 nan
nan -1 -1 -1 -1 -1 -1 -1 -1 -1 -1 -1 -1 -1 -0 -0 -0 -0 -0 -0 -0 -0 0 -0 -0 -0 -0 0 0 -0 -0 -0 -0 0 0 0 -0 0 0 0 0 0 nan
nan -1 -1 -1 -1 -1 -1 -1 -2 -2 -2 -2 -2 -2 -1 -1 -0 -0 -0 -0 -0 -0 0 -0 -1 -0 -0 -0 -0 -0 -0 -0 -0 -0 -0 0 0 0 0 0 0 0 nan
nan -1 -1 -1 -1 -1 -1 -1 -1 -1 -2 -2 -2 -1 -1 -1 -1 -0 -0 -0 -0 -0 -0 -1 -1 -0 -0 -0 -0 -0 -0 -0 0 0 -0 -0 0 0 0 0 0 0 nan
nan -1 -1 -1 -1 -1 -1 -1 -1 -1 -1 -2 -3 -3 -2 -1 -0 0 -0 -0 -0 -0 -0 -0 -1 -1 -1 -0 -0 0 0 -0 0 0 0 0 -0 -0 0 0 0 0 nan
nan -1 -1 -1 -1 -1 -1 -1 -1 -1 -1 -1 -2 -3 -3 -2 0 -2 -1 -1 -1 -1 -1 -1 -1 -1 -1 -1 -1 -0 -0 0 0 -0 0 0 0 0 -0 -0 0 0 nan
nan -0 -0 -0 -0 -0 -1 -1 -1 -1 -1 -0 -0 -1 -1 -1 -5 -3 -2 -1 -2 -1 -1 -1 -1 -1 -1 -1 -1 -1 -1 -1 -0 1 0 0 0 0 -1 -0 0 0 nan
nan -0 -0 -0 -0 -0 -0 -0 -1 -1 -1 -1 -0 -0 0 0 -1 -2 -4 -3 -2 -2 -2 -2 -2 -2 -1 -1 -1 -1 -1 -2 -1 -1 -1 0 1 -0 -0 0 0 -0 nan
nan -0 -0 -0 -0 -0 -0 -0 -0 -0 -0 -0 -0 -1 -0 0 1 0 -3 -5 -4 -2 -1 -2 -2 -2 -2 -2 -2 -1 -1 -1 -1 -2 -1 -1 -1 -0 -1 -0 0 0 nan
nan -0 -0 -0 -0 -0 -0 -0 -0 -0 -0 -0 0 0 -0 -1 0 1 -1 -3 -4 -3 -3 -1 -2 -1 -1 -1 -1 -2 -2 -2 -1 -1 -2 -3 -2 -2 -0 -0 -0 -0 nan
nan -0 -0 -0 -0 -0 -0 -0 -0 -0 -0 -0 -0 0 0 1 -0 1 1 -0 -2 -5 -4 -3 -1 -2 -2 -1 -1 -1 -2 -2 -1 -1 -1 -1 -3 -3 -2 -2 0 -1 nan
nan -0 -0 -0 -0 -0 -0 -0 -0 -0 -0 -0 -0 -0 0 0 1 1 1 1 -1 -2 -2 -4 -4 -1 -1 -2 -1 -1 -2 -3 -3 -2 -2 -1 -2 -2 -3 -3 -1 0 nan
nan -0 -0 -0 -0 -0 -0 -0 -0 -0 -0 -0 -0 -0 -0 -0 0 0 1 2 1 -1 -1 -1 -3 -5 -2 -1 -1 -1 -1 -2 -2 -3 -2 -2 -2 -2 -2 -3 -3 -2 nan
nan -0 -0 -0 -0 -0 -0 -0 -0 -0 -0 -0 -0 -0 -0 -0 -0 0 0 1 2 1 -1 -1 -2 -4 -3 -2 -1 -0 -1 -2 -2 -2 -2 -2 -2 -2 -2 -2 -3 -3 nan
nan -0 -0 -0 -0 -0 -0 -0 -0 -1 -1 -0 -0 -0 -0 -0 -0 0 0 -0 0 2 0 -2 -1 -2 -3 -3 -2 -0 -1 -1 -2 -2 -2 -2 -2 -2 -2 -1 -2 -3 nan
nan -0 -0 -0 -0 -0 -0 -0 -1 -0 -1 -1 -0 -0 -0 -0 -0 -0 -0 0 0 1 1 -1 -1 -1 -2 -4 -4 -2 -0 -1 -2 -3 -2 -1 -2 -3 -1 -2 -2 -3 nan
nan -0 -0 -0 -0 -0 -0 -0 -1 -1 -1 -1 -1 -0 -0 -0 -0 0 -1 -1 0 0 1 0 -0 -0 -0 -1 -3 -4 -1 1 -0 -2 -2 -1 -1 -3 -4 -2 -1 0 nan
nan -0 -0 -0 -0 -0 -0 -0 -0 -1 -1 -1 -0 -0 -0 -1 -0 1 0 -1 -1 -0 -0 0 -0 -0 -0 0 -0 -1 -2 -0 0 -1 -1 -2 -1 -0 -3 -1 0 -1 nan
nan -0 -0 -0 -0 -0 -1 -0 -0 -0 -0 -1 -0 -0 -0 -0 -1 -1 -1 -0 -0 0 0 -0 -0 -0 -1 -0 -0 -0 -1 -2 -1 1 -1 -2 -2 -0 -1 -2 -2 -1 nan
nan -0 -0 -0 -0 -0 -0 1 0 -0 -0 -0 -0 -0 -0 -0 -0 -0 -1 -1 -1 -1 0 0 -0 -1 -0 -0 -0 -0 -0 -1 -3 -0 1 -0 -1 -3 -1 -1 -2 -1 nan
nan -0 -0 -0 -1 -1 -0 0 0 -1 -1 -0 -0 -0 -0 -0 -0 -1 -1 0 -1 -0 -0 -0 -1 -1 -1 -0 0 0 -0 -0 -2 -1 1 -0 -0 -2 -3 -0 -1 -2 nan
nan -0 -0 -1 -1 -1 0 0 -1 -1 -0 -0 -0 -0 -0 -1 -0 0 -0 -1 -1 -1 0 0 -0 -1 -1 0 0 -0 -0 0 -0 -1 0 0 -0 -0 -2 -2 -0 -1 nan
nan -0 -0 -0 -1 -1 0 0 -1 -1 -0 -0 -0 -0 -1 -1 -0 -0 -1 -1 -1 -1 -0 -0 -1 -1 -1 -0 -0 -0 -0 -0 -0 -0 -0 0 -0 0 -0 -1 -1 -0 nan
nan nan nan nan nan nan nan nan nan nan nan nan nan nan nan nan nan nan nan nan nan nan nan nan nan nan nan nan nan nan nan nan nan nan nan nan nan nan nan nan nan nan nan